Location: Congrier
(47.8099°N, 1.1170°W)
Time: 10:21:46
(UTC+00:00)

Cosmos 407 Rocket - Pass Details

Date: 28 January 2023
Orbit: 742 x 785 km, 74.0° (Epoch: 23 March)

Event Time Altitude Azimuth Distance (km) Brightness Sun altitude
Rises 19:20:10 0° 214° (SW) 3,199 7.2 -23.8°
Reaches altitude 10° 19:22:35 10° 219° (SW) 2,272 6.4 -24.2°
Maximum altitude 19:27:38 55° 297° (WNW) 898 4.1 -25.0°
Enters shadow 19:30:48 22° 7° (N) 1,591 5.0 -25.5°
